Terminal Aerodrome Forecast
Issued by NWS

Home | Current Version | Previous Version | Text Only | Print | Product List | Glossary On
Versions: 1 2 3 4 5 6 7 8 9 10 11 12
000
FTUS44 KMAF 031700
TAFHOB
TAF
KHOB 031726Z 0318/0418 16009KT P6SM SCT200
     FM031900 15012G22KT P6SM BKN100
     FM040400 13009KT P6SM OVC100
     FM041500 13014G20KT P6SM OVC050=

USA.gov is the U.S. government's official web portal to all federal, state and local government web resources and services.